Theta_e
306 305 304 303 303 303 303 307 307 310 310 310 311 309 308 306 306 305 305 306 307 307
305 303 303 304 303 303 305 306 308 309 309 309 309 306 307 306 306 306 305 305 306 307
304 304 304 303 302 302 303 307 308 308 308 308 308 308 307 306 307 306 305 306 305 305
304 304 303 302 301 305 306 307 307 307 307 307 306 307 306 306 306 306 305 306 305 306
303 302 301 302 305 306 306 306 307 307 306 306 306 307 306 306 307 306 305 305 305 305
301 300 300 303 305 306 306 306 306 306 306 306 306 306 307 306 306 307 305 305 305 304
300 300 302 305 305 306 305 306 303 306 307 307 307 307 307 307 306 305 305 304 302 308
300 301 305 305 306 306 304 306 306 306 307 307 306 307 306 307 304 303 301 301 308 309
301 302 305 305 305 305 305 306 306 306 306 305 306 304 306 306 304 302 300 304 307 308
301 302 304 305 304 304 304 305 305 305 306 304 304 302 303 305 303 299 299 302 304 307
300 303 304 304 304 304 305 305 305 305 305 303 303 302 301 302 298 300 301 302 301 302
301 303 304 303 304 304 303 304 305 303 302 302 300 300 299 300 304 306 305 305 302 303
302 304 303 303 303 302 303 303 304 303 304 303 298 297 296 299 302 304 303 303 299 298
304 303 304 302 301 301 301 302 304 304 302 298 297 298 297 300 305 304 300 299 298 297
Wind_Speed
2 2 3 3 3 4 4 5 6 5 5 5 5 3 4 4 5 5 5 6 4 4
2 2 1 4 5 4 6 5 6 6 6 6 5 6 6 5 7 5 5 5 6 5
2 2 4 4 7 6 7 6 7 6 6 7 7 6 6 7 5 5 4 4 5 5
3 5 6 6 6 6 6 7 7 7 6 7 7 6 6 7 6 7 5 4 5 6
5 6 7 7 6 6 7 7 7 6 7 7 7 7 7 7 5 5 4 5 5 7
5 6 8 7 6 6 7 7 7 6 7 7 7 6 5 5 6 3 4 5 5 6
6 6 6 7 7 6 6 7 6 7 7 6 6 5 4 6 1 3 4 5 5 3
6 6 5 6 7 7 6 6 6 7 6 5 4 3 3 3 2 3 5 5 4 4
6 6 5 6 7 7 7 7 7 6 5 4 3 5 4 1 3 4 4 4 2 2
6 6 6 6 7 7 7 6 7 5 4 4 4 5 3 2 2 3 4 3 3 2
6 6 6 6 6 7 7 6 6 4 4 3 3 6 4 3 3 3 3 2 2 3
6 6 7 7 7 6 6 7 3 2 3 3 3 5 6 3 3 4 6 6 6 4
6 6 6 6 7 5 5 5 2 3 3 4 3 7 7 4 2 5 4 5 6 14
5 5 5 6 5 5 5 4 2 5 4 5 4 6 9 3 3 3 4 4 4 5
Wind_Direction
251 292 294 280 273 273 261 271 287 287 282 274 264 247 259 255 260 252 250 260 249 237
272 262 272 300 287 277 286 286 287 295 287 288 259 259 252 269 262 245 247 251 251 239
219 219 270 275 280 289 280 282 289 290 286 287 276 265 265 270 252 249 247 252 259 257
269 278 278 265 286 277 291 296 294 286 289 296 295 282 271 269 258 256 255 254 260 266
273 292 288 300 299 290 292 299 299 293 298 293 288 290 279 282 278 268 279 278 277 274
286 296 297 307 300 298 303 301 306 296 291 294 292 291 286 282 283 272 279 284 282 268
286 291 292 304 301 300 302 300 299 299 297 298 299 294 312 302 316 313 290 294 280 316
293 298 302 308 303 301 297 297 294 303 304 306 306 298 347 331 5 356 328 318 350 345
313 312 303 305 311 307 303 306 305 308 312 322 315 350 356 71 325 337 347 350 4 15
315 305 307 308 313 308 306 308 304 307 326 329 323 25 61 48 329 345 353 338 30 83
313 306 309 314 312 310 312 307 304 317 2 2 26 77 59 45 326 325 11 40 62 89
309 311 321 323 321 318 325 317 319 350 39 71 47 59 35 15 39 39 48 51 38 56
306 319 330 331 331 322 321 304 332 65 67 88 57 15 22 35 70 69 54 46 41 40
330 332 344 342 329 322 319 317 68 77 48 50 34 360 7 42 90 89 69 46 27 22